Tracking 28790 objects as of 19-Apr-2024
HD Live streaming from Space Station
objects crossing your sky now

DELTA 1 DEB

Track DELTA 1 DEB now!
10-day predictions


NORAD ID: 27726
Int'l Code: 1975-004HS
Perigee: 740.9 km
Apogee: 894.6 km
Inclination: 97.8 °
Period: 101.1 minutes
Semi major axis: 7188 km
RCS: 0.0127 m2 (small)
Launch date: January 22, 1975
Source: United States (US)
Launch site: AIR FORCE WESTERN TEST RANGE (AFWTR)

Note: This is SATELLITE DEBRIS
Your satellite tracking list
Your tracking list is empty




NASA's NSSDC Master Catalog

Two Line Element Set (TLE):
1 27726U 75004HS  24107.39425042  .00000341  00000-0  15418-3 0  9993
2 27726  97.8200 168.8659 0106933 334.4345  25.1570 14.24372334222811
Source of the keplerian elements: AFSPC